KE9LZ-9 Weather Reports


time (UTC)temp
F
wind
direction
speed
knots
gust
knots
rain 1hr
in
rain 24hr
in
rain mn
in
humidity
%
barometer
mb
20260505031004 49 338 1.7 10.4 0.00 0.00 0.00 49 999.9
20260505030004 49 342 1.7 6.1 0.00 0.00 0.00 48 999.8
20260505024004 50 0 0.9 5.2 0.00 0.00 0.00 48 999.8
20260505023004 51 86 1.7 8.7 0.00 0.00 0.00 47 999.3
20260505022003 51 332 2.6 10.4 0.00 0.00 0.00 48 999.3
20260505021004 52 351 1.7 8.7 0.00 0.00 0.00 47 999.1
20260505020004 53 329 2.6 10.4 0.00 0.00 0.00 46 998.8
20260505015004 53 16 1.7 7.8 0.00 0.00 0.00 46 998.3
20260505013004 55 343 4.3 8.7 0.00 0.00 0.00 44 997.9
20260505012004 56 6 1.7 6.1 0.00 0.00 0.00 44 997.7
20260505011004 57 341 4.3 6.1 0.00 0.00 0.00 43 997.4
20260505004003 61 329 1.7 13.9 0.00 0.00 0.00 38 996.3
20260505002004 62 309 4.3 8.7 0.00 0.00 0.00 35 995.7
20260505001003 63 321 4.3 20.0 0.00 0.00 0.00 35 995.5
20260505000004 63 321 4.3 13.0 0.00 0.00 0.00 34 995.5
20260504235003 64 270 6.1 12.2 0.00 0.00 0.00 33 995.5
20260504234004 64 307 4.3 13.0 0.00 0.00 0.00 33 995.4
20260504233004 65 267 7.8 14.8 0.00 0.00 0.00 32 995.2
20260504231004 66 318 6.1 14.8 0.00 0.00 0.00 30 995.0
20260504230004 67 327 5.2 13.9 0.00 0.00 0.00 29 994.9
20260504225004 66 284 7.0 21.7 0.00 0.00 0.00 30 995.1
20260504221004 68 289 3.5 12.2 0.00 0.00 0.00 29 994.4
20260504220004 70 278 6.1 17.4 0.00 0.00 0.00 26 994.3
20260504215004 68 257 3.5 11.3 0.00 0.00 0.00 27 994.1
20260504214003 68 278 4.3 18.2 0.00 0.00 0.00 27 994.0
20260504213004 69 283 7.8 14.8 0.00 0.00 0.00 26 993.8
20260504212004 70 17 3.5 15.6 0.00 0.01 0.00 25 993.4
20260504211004 70 278 5.2 13.0 0.00 0.01 0.00 24 993.4
20260504210004 71 277 7.8 17.4 0.00 0.01 0.00 27 993.4
20260504205004 71 248 6.1 17.4 0.00 0.01 0.00 27 993.0
20260504204004 71 282 4.3 19.1 0.00 0.01 0.00 28 993.1
20260504203004 71 284 5.2 19.1 0.00 0.01 0.00 29 993.1
20260504202004 71 258 5.2 14.8 0.00 0.01 0.00 26 993.1
20260504201004 70 260 8.7 20.9 0.00 0.01 0.00 25 993.1
20260504200004 71 266 10.4 22.6 0.00 0.01 0.00 24 993.3
20260504195004 72 259 8.7 19.1 0.00 0.01 0.00 24 993.0
20260504194004 72 249 7.8 22.6 0.00 0.01 0.00 25 992.9
20260504193005 72 265 5.2 20.0 0.00 0.01 0.00 30 992.8
20260504185004 72 263 8.7 20.9 0.00 0.01 0.00 32 992.4
20260504184004 73 305 5.2 25.2 0.00 0.01 0.00 33 992.6
20260504183003 72 273 5.2 13.9 0.00 0.01 0.00 35 992.5
20260504182003 72 259 6.1 19.1 0.00 0.01 0.00 35 992.4
20260504181004 72 282 8.7 21.7 0.00 0.01 0.00 34 992.4
20260504180004 72 258 7.8 19.1 0.00 0.01 0.00 35 992.2
20260504175003 71 261 10.4 19.1 0.00 0.01 0.00 36 992.3
20260504174004 71 263 5.2 18.2 0.00 0.01 0.00 36 992.5
20260504173004 72 259 6.1 20.0 0.00 0.01 0.00 36 992.5
20260504172004 71 282 7.0 17.4 0.00 0.01 0.00 37 992.6
20260504171004 71 259 7.8 17.4 0.00 0.01 0.00 36 992.6
20260504151004 67 250 5.2 14.8 0.00 0.01 0.00 38 992.6
20260504141004 58 255 4.3 8.7 0.00 0.01 0.00 49 994.2
20260504081004 38 59 0.0 1.7 0.00 0.01 0.00 92 1000.1
20260504050004 43 294 0.0 1.7 0.00 0.01 0.00 73 1002.6
20260504045004 44 287 0.0 0.9 0.00 0.01 0.01 69 1002.7
20260504044003 44 12 0.0 1.7 0.00 0.01 0.01 66 1002.6
20260504043004 44 274 0.9 0.9 0.00 0.01 0.01 64 1002.7
20260504042004 44 295 0.0 0.9 0.00 0.01 0.01 62 1002.8
20260504035004 46 294 0.0 0.9 0.00 0.01 0.01 53 1003.2
20260504034004 46 299 0.0 0.9 0.00 0.01 0.01 52 1003.1